Regional Weather Roundup
Issued by NWS

Home | Current Version | Previous Version | Graphics & Text | Print | Product List | Glossary On
Versions: 1 2 3 4 5 6 7 8 9 10 11 12 13 14 15 16 17 18 19 20 21 22 23 24 25 26 27 28 29 30 31 32 33 34 35 36 37 38 39 40 41 42 43 44 45 46 47 48 49 50
000
ASUS43 KBIS 162059
RWRND

NORTH DAKOTA REGIONAL WEATHER ROUNDUP
NATIONAL WEATHER SERVICE BISMARCK ND
400 PM CDT TUE SEP 16 2014

NOTE: "FAIR" INDICATES FEW OR NO CLOUDS BELOW 12,000 FEET WITH NO
SIGNIFICANT WEATHER AND/OR OBSTRUCTIONS TO VISIBILITY.


NDZ001>003-009>011-017-162200-
NORTHWEST NORTH DAKOTA

CITY           SKY/WX    TMP DP  RH WIND       PRES   REMARKS
WILLISTON      SUNNY     74  34  23 VRB6      29.94F
MINOT          SUNNY     72  42  34 CALM      29.93F
$$

NDZ018>021-031>035-040>046-162200-
SOUTHWEST NORTH DAKOTA

CITY           SKY/WX    TMP DP  RH WIND       PRES   REMARKS
BISMARCK       SUNNY     75  44  33 VRB3      29.94F
GARRISON         N/A     71  45  39 S6        29.94F
HETTINGER ARPT MOSUNNY   76  44  32 VRB6      29.95F
$$

NDZ004>008-012>016-024-026-027-054-162200-
NORTHEAST NORTH DAKOTA

CITY           SKY/WX    TMP DP  RH WIND       PRES   REMARKS
GRAND FORKS    MOSUNNY   74  42  31 SW8       29.94F
DEVILS LAKE    SUNNY     72  39  30 SW6       29.94F
$$

NDZ022-023-025-028>030-036>039-047>053-162200-
SOUTHEAST NORTH DAKOTA

CITY           SKY/WX    TMP DP  RH WIND       PRES   REMARKS
FARGO          SUNNY     71  40  32 S3        29.97F
JAMESTOWN      SUNNY     69  46  43 S7        29.96F
$$



USA.gov is the U.S. government's official web portal to all federal, state and local government web resources and services.